Home > Weather > Huntington Beach > Past weeks

Flag for USA Past Weather in Huntington Beach, California, USA — Yesterday and Last 2 Weeks

Now
73 °F

Clear.


Feels Like: 75 °F
Forecast: 69 / 83 °F
Wind: 5 mph from Southwest

Location: John Wayne Airport-Orange County Airport

Current Time: Jul 23, 2016 at 2:13:12 AM

Latest Report: Jul 23, 2016 at 12:53 AM


Visibility: 10 mi

Pressure: 29.82 "Hg

Humidity: 74%

Dew Point: 64 °F

Location of Huntington BeachLocation

Past Weather in Huntington Beach — Graph

°F

Huntington Beach Temperature Yesterday

Maximum temperature yesterday: 90 °F (at 11:53 AM)
Minimum temperature yesterday: 68 °F (at 4:53 AM)
Average temperature yesterday: 79 °F

High & Low Weather Summary for the Past Weeks

 TemperatureHumidityPressure
High90 °F (Jul 22, 11:53 AM)90% (Jul 9, 11:53 PM)30.03 "Hg (Jul 9, 11:53 PM)
Low65 °F (Jul 9, 4:53 AM)33% (Jul 20, 3:53 PM)29.81 "Hg (Jul 22, 7:53 PM)
Average72 °F70%29.94 "Hg
* Reported Jul 8 12:53 AM — Jul 23 12:53 AM, Huntington Beach, Weather by CustomWeather, © 2016

Note: Actual official high and low records may vary slightly from our data, if they occured in-between our weather recording intervals... More about our weather records

Advertising

Huntington Beach Weather History for the Previous 24 Hours

Scroll right to see more
 ConditionsComfort  
Time TempWeatherWind HumidityBarometerVisibility
12:53 AM
Sat, Jul 23
73 °FClear.5 mph74%29.82 "Hg10 mi
11:53 PM
Fri, Jul 22
74 °FClear.3 mph64%29.82 "Hg10 mi
10:53 PM75 °FPassing clouds.5 mph64%29.82 "Hg10 mi
9:53 PM76 °FPassing clouds.5 mph64%29.82 "Hg10 mi
8:53 PM76 °FPartly sunny.6 mph67%29.81 "Hg10 mi
7:53 PM81 °FScattered clouds.5 mph49%29.81 "Hg10 mi
6:53 PM84 °FPassing clouds.7 mph37%29.81 "Hg10 mi
5:53 PM86 °FPassing clouds.8 mph37%29.81 "Hg10 mi
4:53 PM88 °FPassing clouds.12 mph36%29.83 "Hg10 mi
3:53 PM89 °FPassing clouds.12 mph39%29.84 "Hg10 mi
2:53 PM89 °FPassing clouds.10 mph36%29.86 "Hg10 mi
1:53 PM90 °FSunny.9 mph33%29.88 "Hg10 mi
12:53 PM89 °FSunny.8 mph35%29.90 "Hg10 mi
11:53 AM90 °FSunny.5 mph39%29.92 "Hg10 mi
10:53 AM87 °FSunny.5 mph43%29.93 "Hg10 mi
9:53 AM82 °FSunny.No wind53%29.93 "Hg10 mi
8:53 AM76 °FPassing clouds.3 mph62%29.94 "Hg10 mi
7:53 AM73 °FSunny.No wind71%29.93 "Hg10 mi
6:53 AM70 °FPassing clouds.3 mph73%29.92 "Hg10 mi
5:53 AM68 °FPassing clouds.3 mph78%29.91 "Hg10 mi
4:53 AM68 °FClear.No wind82%29.90 "Hg10 mi
3:53 AM70 °FClear.No wind79%29.89 "Hg10 mi
2:53 AM69 °FClear.No wind81%29.90 "Hg10 mi
Weather by CustomWeather, © 2016

See weather overviewHow to use our weather pages